GW0326 Weather Reports


time (UTC)temp
C
wind
direction
speed
KPH
gust
KPH
rain 1hr
cm
rain 24hr
cm
rain mn
cm
humidity
%
barometer
mb
20260906225549 22 0 0.0 16.1 0.00 0.00 0.00 45 1023.8
20260906225046 22 0 0.0 16.1 0.00 0.00 0.00 45 1023.9
20260906224550 22 275 0.0 8.0 0.00 0.00 0.00 48 1023.9
20260906224043 23 0 0.0 4.8 0.00 0.00 0.00 49 1023.9
20260906223546 23 0 0.0 6.4 0.00 0.00 0.00 49 1023.8
20260906223101 23 0 0.0 8.0 0.00 0.00 0.00 49 1023.7
20260906222547 23 0 0.0 8.0 0.00 0.00 0.00 48 1023.7
20260906222043 23 0 0.0 11.3 0.00 0.00 0.00 48 1023.8
20260906221558 23 0 3.2 17.7 0.00 0.00 0.00 47 1023.7
20260906221043 24 63 3.2 17.7 0.00 0.00 0.00 46 1023.5
20260906220543 24 49 1.6 16.1 0.00 0.00 0.00 45 1023.6
20260906220106 24 56 3.2 16.1 0.00 0.00 0.00 45 1023.8
20260906215547 24 43 3.2 12.9 0.00 0.00 0.00 46 1023.8
20260906215048 24 41 4.8 12.9 0.00 0.00 0.00 46 1023.9
20260906214609 23 0 1.6 14.5 0.00 0.00 0.00 46 1023.9
20260906214046 23 43 1.6 14.5 0.00 0.00 0.00 46 1023.9
20260906213544 23 43 3.2 14.5 0.00 0.00 0.00 46 1024.0
20260906213106 23 0 0.0 9.7 0.00 0.00 0.00 46 1023.9
20260906212543 23 0 1.6 9.7 0.00 0.00 0.00 46 1023.9
20260906212044 23 44 0.0 9.7 0.00 0.00 0.00 47 1024.1
20260906211606 23 44 1.6 9.7 0.00 0.00 0.00 47 1024.0
20260906211045 23 44 0.0 11.3 0.00 0.00 0.00 48 1024.2
20260906210547 23 44 3.2 11.3 0.00 0.00 0.00 48 1024.3
20260906210056 23 52 3.2 11.3 0.00 0.00 0.00 48 1024.4
20260906205543 22 40 1.6 9.7 0.00 0.00 0.00 49 1024.3
20260906205043 22 0 0.0 9.7 0.00 0.00 0.00 48 1024.4
20260906204613 22 40 1.6 9.7 0.00 0.00 0.00 48 1024.6
20260906204044 22 0 1.6 9.7 0.00 0.00 0.00 47 1024.7
20260906203544 23 0 1.6 19.3 0.00 0.00 0.00 48 1024.6
20260906203101 23 42 4.8 19.3 0.00 0.00 0.00 46 1024.6
20260906202543 23 38 3.2 17.7 0.00 0.00 0.00 45 1024.6
20260906202046 23 0 6.4 16.1 0.00 0.00 0.00 45 1024.6
20260906201559 23 44 1.6 12.9 0.00 0.00 0.00 43 1024.6
20260906201047 24 67 1.6 11.3 0.00 0.00 0.00 43 1024.7
20260906200543 25 52 1.6 11.3 0.00 0.00 0.00 41 1024.5
20260906200053 25 34 0.0 12.9 0.00 0.00 0.00 41 1024.4
20260906195542 25 0 1.6 12.9 0.00 0.00 0.00 40 1024.6
20260906195043 26 42 3.2 11.3 0.00 0.00 0.00 40 1024.6
20260906194601 26 60 0.0 14.5 0.00 0.00 0.00 39 1024.5
20260906194050 25 175 1.6 20.9 0.00 0.00 0.00 40 1024.4
20260906193546 25 46 1.6 20.9 0.00 0.00 0.00 39 1024.5
20260906193058 26 0 0.0 8.0 0.00 0.00 0.00 39 1024.6
20260906192546 26 126 0.0 8.0 0.00 0.00 0.00 38 1024.7
20260906192044 25 0 0.0 8.0 0.00 0.00 0.00 38 1024.7
20260906191611 25 0 0.0 8.0 0.00 0.00 0.00 37 1024.8
20260906191043 25 155 1.6 19.3 0.00 0.00 0.00 37 1024.8
20260906190546 25 0 0.0 19.3 0.00 0.00 0.00 37 1024.9
20260906190058 25 57 1.6 14.5 0.00 0.00 0.00 36 1024.9
20260906185546 25 51 1.6 8.0 0.00 0.00 0.00 36 1025.0
20260906185043 25 0 0.0 6.4 0.00 0.00 0.00 36 1025.0
20260906184559 25 0 0.0 6.4 0.00 0.00 0.00 36 1024.9
20260906184045 25 0 1.6 11.3 0.00 0.00 0.00 36 1025.2
20260906183545 25 51 0.0 11.3 0.00 0.00 0.00 37 1025.3
20260906183100 25 0 1.6 9.7 0.00 0.00 0.00 38 1025.4
20260906182549 25 0 1.6 9.7 0.00 0.00 0.00 37 1025.6
20260906182049 24 43 1.6 9.7 0.00 0.00 0.00 40 1025.7
20260906181557 24 142 0.0 4.8 0.00 0.00 0.00 40 1025.7
20260906181046 24 0 0.0 8.0 0.00 0.00 0.00 40 1025.8
20260906180545 24 107 0.0 14.5 0.00 0.00 0.00 39 1025.9
20260906180110 24 161 3.2 14.5 0.00 0.00 0.00 41 1025.9
20260906175550 24 57 0.0 12.9 0.00 0.00 0.00 39 1025.9
20260906175047 24 121 1.6 12.9 0.00 0.00 0.00 41 1025.9
20260906174552 24 78 1.6 12.9 0.00 0.00 0.00 42 1025.9
20260906174044 24 0 1.6 12.9 0.00 0.00 0.00 44 1026.0
20260906173549 23 66 1.6 14.5 0.00 0.00 0.00 43 1026.1
20260906173105 23 0 3.2 14.5 0.00 0.00 0.00 44 1026.2
20260906172551 23 86 0.0 9.7 0.00 0.00 0.00 43 1026.3
20260906172044 23 138 0.0 9.7 0.00 0.00 0.00 43 1026.4
20260906171602 23 0 0.0 9.7 0.00 0.00 0.00 40 1026.4
20260906171047 23 117 0.0 14.5 0.00 0.00 0.00 41 1026.4
20260906170545 23 115 3.2 14.5 0.00 0.00 0.00 46 1026.4
20260906170058 23 120 0.0 12.9 0.00 0.00 0.00 45 1026.4
20260906165545 23 133 0.0 12.9 0.00 0.00 0.00 46 1026.3
20260906165048 23 0 0.0 11.3 0.00 0.00 0.00 46 1026.3
20260906164554 23 0 1.6 16.1 0.00 0.00 0.00 46 1026.3
20260906164045 23 0 0.0 16.1 0.00 0.00 0.00 45 1026.4
20260906163545 23 0 4.8 16.1 0.00 0.00 0.00 45 1026.3
20260906163122 23 60 6.4 16.1 0.00 0.00 0.00 47 1026.4
20260906162546 23 40 3.2 14.5 0.00 0.00 0.00 47 1026.3
20260906162044 23 55 0.0 14.5 0.00 0.00 0.00 47 1026.3
20260906161555 23 59 1.6 14.5 0.00 0.00 0.00 46 1026.3
20260906161044 23 49 4.8 14.5 0.00 0.00 0.00 45 1026.3
20260906160545 23 0 1.6 11.3 0.00 0.00 0.00 44 1026.4
20260906160056 23 0 0.0 8.0 0.00 0.00 0.00 42 1026.3
20260906155545 23 0 0.0 11.3 0.00 0.00 0.00 38 1026.3
20260906155045 23 0 3.2 11.3 0.00 0.00 0.00 37 1026.2
20260906154603 23 0 0.0 9.7 0.00 0.00 0.00 37 1026.2
20260906154046 23 42 3.2 14.5 0.00 0.00 0.00 37 1026.1
20260906153548 23 45 3.2 14.5 0.00 0.00 0.00 37 1026.2
20260906153059 23 49 1.6 11.3 0.00 0.00 0.00 38 1026.2
20260906152544 23 45 0.0 9.7 0.00 0.00 0.00 37 1026.1
20260906152044 22 0 0.0 9.7 0.00 0.00 0.00 37 1026.2
20260906151609 22 0 1.6 9.7 0.00 0.00 0.00 38 1026.2
20260906151045 22 0 0.0 0.0 0.00 0.00 0.00 38 1026.3
20260906150545 22 0 0.0 0.0 0.00 0.00 0.00 38 1026.3
20260906150109 22 0 0.0 0.0 0.00 0.00 0.00 38 1026.3
20260906145545 21 0 0.0 0.0 0.00 0.00 0.00 39 1026.3
20260906145045 21 0 0.0 0.0 0.00 0.00 0.00 40 1026.3
20260906144600 21 0 0.0 0.0 0.00 0.00 0.00 41 1026.3
20260906144048 21 0 0.0 0.0 0.00 0.00 0.00 41 1026.4
20260906143544 20 0 0.0 0.0 0.00 0.00 0.00 42 1026.3
20260906143104 20 0 0.0 0.0 0.00 0.00 0.00 41 1026.3
20260906142545 20 0 0.0 6.4 0.00 0.00 0.00 41 1026.3
20260906142046 20 0 0.0 6.4 0.00 0.00 0.00 40 1026.2
20260906141603 20 0 0.0 4.8 0.00 0.00 0.00 41 1026.2
20260906141044 20 0 0.0 4.8 0.00 0.00 0.00 42 1026.2
20260906140545 19 0 0.0 6.4 0.00 0.00 0.00 43 1026.2
20260906140103 18 0 0.0 6.4 0.00 0.00 0.00 44 1026.1
20260906135545 18 0 0.0 12.9 0.00 0.00 0.00 45 1026.1
20260906135045 18 0 1.6 12.9 0.00 0.00 0.00 45 1026.2
20260906134600 18 279 0.0 9.7 0.00 0.00 0.00 45 1026.2
20260906134045 18 0 0.0 9.7 0.00 0.00 0.00 46 1026.2
20260906133545 17 0 1.6 9.7 0.00 0.00 0.00 47 1026.2
20260906133121 17 0 0.0 9.7 0.00 0.00 0.00 48 1026.2
20260906132546 17 0 0.0 9.7 0.00 0.00 0.00 49 1026.2
20260906132046 16 0 0.0 0.0 0.00 0.00 0.00 49 1026.1
20260906131613 16 0 0.0 0.0 0.00 0.00 0.00 50 1026.1
20260906131045 16 0 0.0 0.0 0.00 0.00 0.00 51 1026.1
20260906130545 16 0 0.0 6.4 0.00 0.00 0.00 50 1026.0
20260906130056 16 0 0.0 6.4 0.00 0.00 0.00 51 1025.9
20260906125548 16 0 0.0 6.4 0.00 0.00 0.00 51 1025.9
20260906125048 16 0 0.0 0.0 0.00 0.00 0.00 51 1025.8
20260906124600 16 0 0.0 0.0 0.00 0.00 0.00 50 1025.8
20260906124045 16 0 0.0 0.0 0.00 0.00 0.00 50 1025.8
20260906123546 16 0 0.0 4.8 0.00 0.00 0.00 50 1025.7
20260906123057 16 0 0.0 8.0 0.00 0.00 0.00 50 1025.7
20260906122545 16 0 0.0 9.7 0.00 0.00 0.00 51 1025.7
20260906122045 16 0 0.0 9.7 0.00 0.00 0.00 52 1025.7
20260906121555 15 279 0.0 4.8 0.00 0.00 0.00 53 1025.7
20260906121045 15 0 0.0 4.8 0.00 0.00 0.00 54 1025.9
20260906120545 14 279 0.0 4.8 0.00 0.00 0.00 56 1025.9
20260906120105 14 0 0.0 0.0 0.00 0.00 0.00 57 1025.8
20260906115545 13 0 0.0 0.0 0.00 0.00 0.00 58 1025.7
20260906115045 13 0 0.0 0.0 0.00 0.00 0.00 59 1025.7
20260906114559 13 0 0.0 0.0 0.00 0.00 0.00 59 1025.8
20260906114044 13 0 0.0 0.0 0.00 0.00 0.00 60 1025.8
20260906113545 13 0 0.0 0.0 0.00 0.00 0.00 60 1025.8
20260906113057 13 0 0.0 0.0 0.00 0.00 0.00 61 1025.7
20260906112548 13 0 0.0 0.0 0.00 0.00 0.00 60 1025.7
20260906112045 13 0 0.0 0.0 0.00 0.00 0.00 60 1025.8
20260906111552 13 0 0.0 0.0 0.00 0.00 0.00 60 1025.7
20260906111045 14 0 0.0 0.0 0.00 0.00 0.00 60 1025.8
20260906110545 14 0 0.0 0.0 0.00 0.00 0.00 60 1025.7
20260906110052 14 0 0.0 0.0 0.00 0.00 0.00 60 1025.7
20260906105546 14 0 0.0 0.0 0.00 0.00 0.00 60 1025.7
20260906105044 13 0 0.0 0.0 0.00 0.00 0.00 60 1025.7
20260906104558 13 0 0.0 0.0 0.00 0.00 0.00 60 1025.7
20260906104045 13 0 0.0 0.0 0.00 0.00 0.00 60 1025.8
20260906103547 14 0 0.0 0.0 0.00 0.00 0.00 60 1025.7
20260906103058 14 0 0.0 0.0 0.00 0.00 0.00 60 1025.8
20260906102546 14 0 0.0 0.0 0.00 0.00 0.00 59 1025.7
20260906102045 14 0 0.0 0.0 0.00 0.00 0.00 59 1025.7
20260906101603 14 0 0.0 0.0 0.00 0.00 0.00 59 1025.8
20260906101045 14 0 0.0 0.0 0.00 0.00 0.00 59 1025.8
20260906100547 15 0 0.0 0.0 0.00 0.00 0.00 59 1025.7
20260906100111 15 0 0.0 0.0 0.00 0.00 0.00 59 1025.7
20260906095549 15 0 0.0 0.0 0.00 0.00 0.00 59 1025.7
20260906095045 15 0 0.0 0.0 0.00 0.00 0.00 58 1025.7
20260906094604 15 0 0.0 0.0 0.00 0.00 0.00 58 1025.7
20260906094044 15 0 0.0 0.0 0.00 0.00 0.00 58 1025.7
20260906093546 15 0 0.0 0.0 0.00 0.00 0.00 57 1025.9
20260906093059 15 0 0.0 0.0 0.00 0.00 0.00 58 1026.0
20260906092545 15 0 0.0 0.0 0.00 0.00 0.00 57 1026.0
20260906092045 16 0 0.0 0.0 0.00 0.00 0.00 57 1026.0
20260906091552 16 0 0.0 0.0 0.00 0.00 0.00 57 1025.9
20260906091045 16 0 0.0 0.0 0.00 0.00 0.00 55 1025.9
20260906090545 16 0 0.0 0.0 0.00 0.00 0.00 54 1025.9
20260906090115 16 0 0.0 0.0 0.00 0.00 0.00 53 1025.7
20260906085545 17 0 0.0 0.0 0.00 0.00 0.00 52 1025.7
20260906085047 17 0 0.0 0.0 0.00 0.00 0.00 53 1025.6
20260906084559 17 0 0.0 0.0 0.00 0.00 0.00 53 1025.5
20260906084045 17 0 0.0 3.2 0.00 0.00 0.00 53 1025.4
20260906083546 17 0 0.0 3.2 0.00 0.00 0.00 53 1025.5
20260906083056 17 0 0.0 3.2 0.00 0.00 0.00 54 1025.5
20260906082545 17 0 0.0 3.2 0.00 0.00 0.00 54 1025.6
20260906082045 16 0 0.0 3.2 0.00 0.00 0.00 55 1025.6
20260906081556 16 0 0.0 3.2 0.00 0.00 0.00 56 1025.6
20260906081045 16 0 0.0 0.0 0.00 0.00 0.00 56 1025.7
20260906080545 16 0 0.0 3.2 0.00 0.00 0.00 57 1025.7
20260906080104 16 0 0.0 3.2 0.00 0.00 0.00 58 1025.7
20260906075545 16 0 0.0 1.6 0.00 0.00 0.00 58 1026.0
20260906075047 16 0 0.0 0.0 0.00 0.00 0.00 56 1026.1
20260906074600 16 0 0.0 0.0 0.00 0.00 0.00 56 1026.1
20260906074044 17 0 0.0 0.0 0.00 0.00 0.00 56 1026.0
20260906073545 17 0 0.0 0.0 0.00 0.00 0.00 56 1026.0
20260906073057 17 0 0.0 0.0 0.00 0.00 0.00 55 1026.1
20260906072545 17 0 0.0 0.0 0.00 0.00 0.00 55 1026.1
20260906072044 17 0 0.0 0.0 0.00 0.00 0.00 55 1026.1
20260906071555 17 0 0.0 4.8 0.00 0.00 0.00 56 1026.1
20260906071045 17 0 0.0 4.8 0.00 0.00 0.00 55 1026.3
20260906070545 17 0 0.0 4.8 0.00 0.00 0.00 55 1026.2
20260906070054 17 0 0.0 0.0 0.00 0.00 0.00 54 1026.2
20260906065545 17 0 0.0 6.4 0.00 0.00 0.00 54 1026.0
20260906065045 17 0 0.0 6.4 0.00 0.00 0.00 55 1026.0
20260906064559 17 0 0.0 6.4 0.00 0.00 0.00 55 1026.1
20260906064045 17 0 0.0 1.6 0.00 0.00 0.00 54 1026.2
20260906063545 17 0 0.0 0.0 0.00 0.00 0.00 54 1026.2
20260906063057 18 0 0.0 6.4 0.00 0.00 0.00 54 1026.2
20260906062547 18 0 0.0 6.4 0.00 0.00 0.00 53 1026.2
20260906062045 18 0 0.0 8.0 0.00 0.00 0.00 52 1026.3
20260906061556 18 0 0.0 8.0 0.00 0.00 0.00 52 1026.3
20260906061049 18 0 0.0 6.4 0.00 0.00 0.00 51 1026.3
20260906060545 18 0 0.0 1.6 0.00 0.00 0.00 51 1026.4
20260906060130 19 0 0.0 0.0 0.00 0.00 0.00 49 1026.4
20260906055548 19 0 0.0 0.0 0.00 0.00 0.00 48 1026.5
20260906055046 19 0 0.0 0.0 0.00 0.00 0.00 48 1026.6
20260906054559 19 0 0.0 0.0 0.00 0.00 0.00 48 1026.8
20260906054045 19 0 0.0 0.0 0.00 0.00 0.00 47 1026.8
20260906053545 20 0 0.0 0.0 0.00 0.00 0.00 47 1026.8
20260906053058 20 0 0.0 0.0 0.00 0.00 0.00 46 1027.0
20260906052548 20 0 0.0 0.0 0.00 0.00 0.00 46 1027.0
20260906052046 20 0 0.0 4.8 0.00 0.00 0.00 46 1027.1
20260906051558 20 0 0.0 6.4 0.00 0.00 0.00 46 1027.0
20260906051045 20 269 0.0 9.7 0.00 0.00 0.00 47 1026.9
20260906050544 20 233 1.6 16.1 0.00 0.00 0.00 47 1026.7
20260906050054 19 237 1.6 16.1 0.00 0.00 0.00 47 1026.6
20260906045545 19 260 1.6 16.1 0.00 0.00 0.00 48 1026.6
20260906045045 19 0 0.0 4.8 0.00 0.00 0.00 49 1026.5
20260906044559 19 282 0.0 6.4 0.00 0.00 0.00 49 1026.4
20260906044044 19 0 0.0 6.4 0.00 0.00 0.00 49 1026.4
20260906043547 19 0 0.0 6.4 0.00 0.00 0.00 48 1026.4
20260906043056 19 0 0.0 9.7 0.00 0.00 0.00 48 1026.4
20260906042545 19 322 0.0 14.5 0.00 0.00 0.00 47 1026.3
20260906042046 19 0 1.6 16.1 0.00 0.00 0.00 48 1026.3
20260906041554 19 280 1.6 16.1 0.00 0.00 0.00 48 1026.3
20260906041048 19 0 3.2 14.5 0.00 0.00 0.00 48 1026.3
20260906040545 19 236 0.0 16.1 0.00 0.00 0.00 47 1026.4
20260906040104 20 0 1.6 16.1 0.00 0.00 0.00 46 1026.3
20260906035543 20 294 3.2 20.9 0.00 0.00 0.00 46 1026.3
20260906035046 19 213 3.2 20.9 0.00 0.00 0.00 46 1026.5
20260906034559 19 302 3.2 20.9 0.00 0.00 0.00 47 1026.4
20260906034045 18 344 1.6 8.0 0.00 0.00 0.00 48 1026.3
20260906033548 18 0 0.0 8.0 0.00 0.00 0.00 48 1026.0
20260906033101 18 0 0.0 8.0 0.00 0.00 0.00 49 1025.9
20260906032544 18 0 0.0 8.0 0.00 0.00 0.00 50 1025.9
20260906032044 18 286 0.0 8.0 0.00 0.00 0.00 50 1025.9
20260906031603 18 0 0.0 8.0 0.00 0.00 0.00 51 1025.8
20260906031045 18 0 0.0 9.7 0.00 0.00 0.00 51 1025.8
20260906030546 18 235 0.0 19.3 0.00 0.00 0.00 52 1025.9
20260906030059 18 360 3.2 19.3 0.00 0.00 0.00 52 1025.8
20260906025624 18 0 1.6 17.7 0.00 0.00 0.00 52 1025.7
20260906025045 18 0 0.0 17.7 0.00 0.00 0.00 52 1025.6
20260906024608 18 258 1.6 17.7 0.00 0.00 0.00 52 1025.6
20260906024044 18 0 0.0 6.4 0.00 0.00 0.00 51 1025.5
20260906023545 18 263 0.0 3.2 0.00 0.00 0.00 50 1025.3
20260906023102 19 0 0.0 4.8 0.00 0.00 0.00 49 1025.3
20260906022545 19 0 0.0 9.7 0.00 0.00 0.00 48 1025.3
20260906022047 19 244 0.0 11.3 0.00 0.00 0.00 48 1025.4
20260906021607 20 244 1.6 11.3 0.00 0.00 0.00 48 1025.3
20260906021050 20 0 0.0 12.9 0.00 0.00 0.00 47 1025.2
20260906020544 20 0 0.0 12.9 0.00 0.00 0.00 45 1025.2
20260906020108 20 360 0.0 1.6 0.00 0.00 0.00 45 1025.3
20260906015545 21 0 0.0 6.4 0.00 0.00 0.00 43 1025.1
20260906015044 21 0 0.0 6.4 0.00 0.00 0.00 43 1024.9
20260906014611 21 0 0.0 6.4 0.00 0.00 0.00 47 1024.9
20260906014044 21 0 0.0 8.0 0.00 0.00 0.00 44 1025.2
20260906013544 21 0 0.0 19.3 0.00 0.00 0.00 44 1025.3
20260906013100 21 0 0.0 19.3 0.00 0.00 0.00 42 1025.4
20260906012544 21 0 4.8 19.3 0.00 0.00 0.00 42 1025.5
20260906012044 21 219 0.0 11.3 0.00 0.00 0.00 40 1025.4
20260906011613 21 0 0.0 9.7 0.00 0.00 0.00 39 1025.2
20260906011044 22 0 0.0 9.7 0.00 0.00 0.00 39 1025.2
20260906010544 22 0 0.0 1.6 0.00 0.00 0.00 38 1025.2
20260906010105 22 0 0.0 1.6 0.00 0.00 0.00 37 1025.3
20260906005544 22 0 0.0 3.2 0.00 0.00 0.00 36 1025.3
20260906005044 22 0 0.0 3.2 0.00 0.00 0.00 36 1025.4
20260906004605 22 0 0.0 4.8 0.00 0.00 0.00 35 1025.4
20260906004044 23 0 0.0 4.8 0.00 0.00 0.00 35 1025.3
20260906003545 23 0 0.0 4.8 0.00 0.00 0.00 34 1025.5
20260906003113 23 0 0.0 4.8 0.00 0.00 0.00 34 1025.4
20260906002544 23 0 0.0 12.9 0.00 0.00 0.00 34 1025.3
20260906002048 23 0 0.0 12.9 0.00 0.00 0.00 34 1025.2
20260906001602 23 0 0.0 4.8 0.00 0.00 0.00 34 1025.2
20260906001044 23 0 0.0 4.8 0.00 0.00 0.00 34 1025.2
20260906000544 23 0 0.0 9.7 0.00 0.00 0.00 34 1025.2
20260906000108 23 0 0.0 9.7 0.00 0.00 0.00 34 1025.3
20260905235545 24 0 0.0 9.7 0.00 0.00 0.00 34 1025.2
20260905235044 24 319 1.6 8.0 0.00 0.00 0.00 33 1025.2
20260905234553 24 0 0.0 12.9 0.00 0.00 0.00 32 1025.1
20260905234044 25 13 1.6 12.9 0.00 0.00 0.00 31 1025.1
20260905233545 25 19 1.6 8.0 0.00 0.00 0.00 31 1025.1
20260905233123 24 323 0.0 4.8 0.00 0.00 0.00 30 1025.2
20260905232545 25 0 0.0 3.2 0.00 0.00 0.00 30 1025.2
20260905232045 25 0 0.0 3.2 0.00 0.00 0.00 29 1025.2
20260905231558 25 0 0.0 8.0 0.00 0.00 0.00 29 1025.0
20260905231044 25 0 1.6 8.0 0.00 0.00 0.00 28 1025.0
20260905230544 25 55 0.0 4.8 0.00 0.00 0.00 28 1024.9
20260905230058 25 0 0.0 8.0 0.00 0.00 0.00 28 1024.9